Theta_e
322 323 323 324 325 326 326 326 325 326 327 326 326 326 325 322 319 317 318 320 322 319 319 316 315 315 316 316 314 318 317 317 314 314 314 313 317 315 313 314 314 313 316 312 312 314 313 315 314 315 316 318 316 315 315 316 317 316 319 318 317 315 316 318 321 321 319 316 319 319 320 324 326 327 324 324 325 326 327 324 324 327 325 324 324
321 321 323 324 324 325 324 324 328 324 325 325 323 323 322 322 320 318 317 316 317 318 317 317 315 314 312 313 313 311 314 312 312 312 314 313 314 314 312 311 313 311 314 313 313 312 312 313 314 314 314 315 317 315 315 320 314 314 317 315 316 315 314 317 318 319 315 314 314 315 316 318 322 324 322 323 324 325 325 324 324 325 325 324 325
318 319 321 322 323 323 323 322 323 322 322 322 321 320 319 318 318 318 317 315 315 317 314 313 314 312 312 312 313 310 312 313 311 311 312 311 311 312 311 310 312 311 312 314 313 313 313 313 313 313 313 316 313 311 311 312 312 313 315 314 314 315 316 317 317 318 314 317 317 315 310 309 315 320 323 323 322 323 324 324 325 325 325 324 325
317 317 319 320 320 320 321 322 322 322 321 320 320 319 318 318 315 315 315 314 314 315 317 313 315 313 313 312 312 311 310 314 310 309 309 311 311 311 311 311 312 312 312 313 314 314 314 313 313 313 313 315 313 310 310 311 311 312 314 315 315 312 313 314 318 317 317 316 309 310 311 311 308 311 317 319 322 322 323 322 324 323 324 325 326
316 318 318 318 319 320 320 321 319 319 319 318 319 319 318 315 314 314 314 313 313 316 312 312 312 309 310 311 311 310 309 307 308 308 307 311 312 309 310 311 311 312 312 313 316 315 314 314 312 313 312 313 313 310 310 310 311 311 313 313 313 313 313 314 315 316 316 319 312 312 311 309 310 313 315 315 319 319 322 322 323 323 323 324 324
318 317 318 319 318 319 319 317 317 318 319 319 319 319 318 316 316 315 314 314 313 313 313 312 310 307 307 307 306 305 305 304 304 306 305 306 308 308 310 310 311 312 312 313 314 317 314 313 312 313 312 312 313 309 309 310 309 310 311 312 312 314 314 313 312 316 317 317 316 316 314 309 310 314 312 307 316 319 321 321 323 323 322 323 321
317 318 318 318 318 316 316 316 317 317 317 318 318 317 317 316 315 315 314 313 315 313 313 314 308 307 306 307 307 305 304 304 305 307 306 308 308 308 308 310 310 311 311 311 312 314 314 313 312 313 312 311 313 308 307 307 308 308 311 310 311 314 314 312 312 313 314 315 317 316 315 316 317 312 309 312 308 313 316 318 320 323 322 320 317
316 316 315 315 315 314 315 316 317 318 317 317 316 315 314 314 313 314 314 313 310 312 310 312 309 306 305 305 309 306 305 305 306 307 307 311 307 307 308 309 310 311 311 311 311 312 315 313 313 313 313 311 312 308 306 307 307 308 309 309 310 312 311 312 312 313 311 311 316 315 315 316 316 318 318 314 311 309 310 317 319 320 321 319 314
316 314 314 315 315 315 315 316 318 320 318 315 314 314 313 312 311 310 311 312 308 309 310 307 310 307 304 305 304 307 308 307 307 307 306 307 306 307 308 308 308 309 310 310 310 310 314 314 313 312 312 311 311 308 307 306 306 305 305 306 307 309 310 313 313 312 313 311 312 313 314 314 315 316 318 318 312 309 309 311 313 317 319 318 313
316 316 316 315 315 316 318 318 317 317 318 320 315 314 312 310 309 307 307 309 309 306 306 306 305 307 304 304 304 304 306 305 306 305 305 306 307 306 307 307 307 308 309 310 309 310 311 313 312 310 309 309 310 306 306 305 305 305 305 306 307 306 308 310 312 312 312 313 313 312 311 312 312 314 316 315 314 313 309 310 312 312 311 313 311
315 315 315 316 316 316 315 315 314 314 314 313 313 313 312 309 306 306 306 307 308 305 305 305 305 305 305 305 305 305 305 305 305 305 305 305 306 306 306 306 306 307 308 308 309 309 312 312 309 308 308 308 307 305 305 305 305 305 305 305 306 305 306 308 309 310 311 311 311 312 312 311 310 310 312 314 313 312 311 311 313 314 312 309 308
315 315 314 312 312 311 312 311 311 311 312 312 311 312 312 308 306 305 305 305 305 304 304 305 305 305 305 305 306 306 305 305 305 305 304 304 305 305 305 305 305 306 307 307 307 309 311 308 308 306 306 305 305 305 305 304 305 305 305 305 305 305 306 308 307 307 308 309 311 312 313 314 314 312 315 315 314 313 313 311 312 313 313 311 307
315 314 312 311 310 309 309 309 309 309 310 310 310 309 310 309 305 303 303 304 304 303 303 304 304 304 305 306 306 310 306 305 305 305 305 304 304 304 304 304 304 305 306 306 307 308 309 307 305 304 304 304 305 304 304 304 304 304 304 304 304 304 305 306 306 306 308 309 310 312 313 314 315 316 317 316 315 315 313 311 312 313 308 305 304
314 313 312 311 310 310 309 309 309 309 309 308 307 306 306 307 305 302 302 303 304 303 302 303 304 305 305 305 306 307 306 305 304 305 305 304 304 304 304 304 304 304 305 306 307 308 308 307 305 304 304 303 304 303 303 303 303 303 304 303 304 305 305 305 306 307 309 310 311 311 312 314 315 317 315 316 316 314 312 312 310 311 308 303 304
314 313 312 312 311 311 310 310 308 308 308 307 304 304 304 304 304 301 301 302 303 303 303 303 303 304 305 306 306 307 307 304 305 308 305 304 304 304 304 304 304 305 305 307 308 308 307 305 306 303 302 302 302 302 302 302 302 302 304 304 305 305 305 306 306 308 308 309 310 311 313 315 315 316 316 315 315 316 314 313 311 306 304 303 303
314 313 312 312 312 311 310 310 309 309 308 305 303 302 302 304 304 303 301 302 303 304 302 303 303 305 304 305 305 308 310 306 305 306 305 305 304 304 304 304 305 305 307 307 307 307 306 304 304 302 302 301 302 301 301 301 301 302 303 303 303 306 305 306 307 309 309 310 311 313 313 313 315 315 315 317 317 318 317 316 314 309 302 300 303
312 312 312 312 311 311 311 310 309 310 306 304 303 301 300 302 303 303 302 300 302 304 302 303 304 304 304 305 305 305 305 303 303 304 304 305 305 305 305 305 305 306 307 309 307 306 305 305 303 302 301 301 301 300 300 300 301 301 302 302 303 304 305 306 308 309 311 312 312 312 311 312 314 315 316 317 317 318 318 318 316 310 307 303 300
311 311 311 311 311 312 311 311 311 308 305 303 303 302 300 301 301 302 302 301 301 302 303 303 303 304 304 304 304 304 304 304 304 304 304 304 304 305 305 305 304 306 308 308 307 305 304 305 302 301 300 300 300 299 299 300 300 301 302 302 302 303 304 307 309 311 312 311 313 311 313 314 315 316 317 317 318 317 318 318 317 316 312 305 303
309 309 308 308 308 307 307 307 306 307 306 304 302 301 300 301 302 300 301 302 302 303 303 303 304 304 305 304 303 304 304 304 304 305 304 304 304 304 304 304 304 306 306 306 306 304 303 302 301 300 299 299 299 299 299 299 300 299 301 300 301 302 304 306 308 309 311 312 311 312 313 313 315 315 315 316 317 318 318 318 317 316 315 311 307
309 308 308 308 308 308 305 302 301 301 301 302 301 301 300 299 300 301 301 300 301 301 302 302 303 303 304 303 303 304 305 304 304 303 303 303 303 304 304 303 304 305 304 306 305 304 303 301 300 299 299 298 298 299 299 299 299 300 300 299 300 302 305 306 308 309 311 312 312 311 311 311 313 315 316 316 316 318 318 318 317 315 315 315 311
308 307 307 306 305 305 305 303 303 302 304 301 301 301 300 299 299 299 299 299 300 301 301 301 303 302 303 302 302 303 303 304 303 303 302 302 302 304 304 304 304 303 304 305 305 303 302 301 299 299 298 297 298 298 299 298 298 298 298 300 300 303 304 306 310 308 311 311 312 310 310 310 310 312 314 315 316 317 317 317 317 316 315 315 310
306 306 305 304 303 303 303 303 301 301 300 300 300 300 299 299 299 299 299 300 300 301 301 301 302 302 301 302 302 303 303 302 301 301 302 301 301 301 303 303 302 303 303 304 304 303 302 300 299 298 297 297 298 298 298 298 297 297 299 301 302 304 305 307 309 309 310 310 311 310 309 309 309 309 312 314 316 317 317 316 317 316 316 315 313
306 306 306 304 301 301 302 301 300 300 300 300 299 299 299 299 299 299 299 300 301 301 301 301 301 301 301 301 302 302 302 301 300 300 300 300 301 301 303 301 302 302 303 304 304 303 301 299 298 297 297 297 297 298 298 297 297 297 297 299 303 304 306 307 308 309 310 310 310 310 309 309 308 306 307 311 315 316 318 317 316 317 315 315 312
304 303 302 301 300 300 300 300 300 300 299 300 299 299 299 299 299 299 299 300 301 301 301 301 301 301 301 301 301 301 300 300 299 299 299 299 300 300 303 301 301 302 302 303 305 303 301 299 298 297 296 297 297 297 297 297 297 297 297 299 302 304 307 308 308 309 310 310 310 310 309 308 307 305 305 308 312 315 315 316 316 316 316 314 311
301 300 300 300 299 299 298 299 299 299 299 298 299 299 298 299 299 299 300 300 301 301 301 300 300 300 300 300 300 300 299 299 299 299 299 299 299 300 301 301 301 301 302 303 304 303 300 299 297 297 296 296 296 297 297 296 296 297 298 299 302 305 307 308 308 309 311 309 309 309 309 307 306 305 305 306 309 313 315 315 315 316 315 313 309
301 300 300 300 300 300 299 298 298 297 297 297 297 298 298 299 299 300 300 300 300 301 300 300 300 300 300 299 299 299 299 298 299 298 298 299 299 299 299 301 301 300 301 303 303 303 301 298 297 297 297 296 296 297 296 296 296 296 298 300 302 304 307 308 308 308 308 309 308 306 306 308 306 305 305 306 308 311 315 314 314 315 315 312 308
301 301 300 300 299 299 299 298 297 296 296 296 297 297 297 298 298 300 300 300 300 300 300 299 299 299 299 299 298 298 298 298 298 298 298 299 299 299 299 300 301 301 301 301 302 302 301 299 298 297 297 296 296 296 296 295 295 296 297 300 301 303 306 307 308 308 307 306 307 306 305 307 307 306 306 306 307 310 313 314 315 315 314 310 307
302 300 300 299 299 299 299 298 297 297 298 298 298 298 298 298 298 299 300 300 301 300 299 299 299 299 298 299 298 298 298 299 299 298 298 298 299 299 299 300 301 300 301 301 300 300 301 300 298 297 296 296 296 295 295 295 295 295 297 299 300 302 304 306 306 307 307 305 304 305 304 307 309 309 307 306 307 310 313 313 314 314 312 310 307
301 301 301 300 299 298 297 297 297 296 296 296 297 297 297 298 298 298 299 299 300 299 299 298 299 298 298 298 298 299 298 298 298 298 298 298 298 298 299 299 300 300 302 301 300 299 299 298 298 297 296 296 295 295 295 295 295 295 297 298 299 301 303 304 305 305 307 306 303 303 303 306 309 312 311 310 310 314 313 312 313 313 312 310 309
301 301 301 300 300 299 297 297 296 296 296 296 297 296 297 297 298 298 299 299 300 299 299 298 298 298 298 298 298 298 297 297 297 297 297 297 298 298 299 298 299 299 299 300 299 299 298 298 297 296 296 295 294 295 296 296 296 296 297 298 299 300 302 303 303 303 304 306 303 301 303 309 309 309 308 308 306 308 312 313 312 312 312 311 309
302 301 301 301 300 299 298 297 296 296 296 296 296 296 297 297 297 298 298 299 299 298 298 298 298 298 298 298 297 297 297 297 297 297 297 297 297 298 297 298 298 298 298 299 298 298 298 298 297 296 295 294 294 294 294 293 293 295 297 298 298 299 301 302 302 302 302 304 303 300 300 303 305 307 303 306 307 305 305 306 307 311 315 311 308
302 302 301 300 300 298 297 297 296 296 296 296 296 296 297 297 297 298 299 299 299 298 298 298 298 298 298 297 297 297 296 296 297 296 297 297 297 297 297 297 297 297 298 298 297 297 297 297 297 296 295 294 294 295 292 293 293 293 296 297 298 298 300 301 301 301 302 303 302 299 299 300 300 304 301 300 305 308 307 307 306 306 303 301 302
303 302 302 301 299 298 297 296 295 296 297 297 297 297 297 297 298 298 300 299 298 298 297 298 298 298 297 297 297 296 296 296 296 296 296 297 296 297 296 296 296 297 296 296 296 296 296 296 296 294 294 293 293 294 292 293 292 292 293 296 297 298 299 300 300 300 301 302 302 299 298 299 299 306 302 299 301 304 312 311 310 309 310 305 297
303 303 302 300 300 299 298 296 295 296 297 298 298 297 298 299 300 299 298 297 298 297 297 297 297 298 297 297 297 296 296 296 296 296 296 296 296 295 296 296 297 296 295 295 295 295 296 295 295 294 293 292 292 294 292 292 292 292 293 294 296 297 298 299 298 298 299 301 301 298 296 297 298 299 299 298 299 298 305 309 309 307 307 308 306
302 301 300 299 298 297 296 295 295 297 297 298 298 298 298 298 298 298 297 297 297 297 297 297 297 297 297 297 297 296 296 296 295 295 295 295 295 295 295 296 295 295 295 294 294 294 295 295 294 293 292 291 292 293 291 292 292 292 293 295 294 296 297 298 297 297 297 298 300 297 296 296 296 297 299 299 299 298 298 300 302 303 305 306 306
302 300 299 298 298 297 296 295 300 298 297 297 296 296 297 297 298 298 297 297 297 297 297 296 296 297 297 297 297 296 295 295 295 295 294 294 294 294 294 295 296 294 295 295 294 294 293 293 293 292 291 290 291 292 291 291 291 291 293 293 293 294 296 297 296 295 295 296 299 297 294 294 295 296 298 295 298 300 296 296 297 298 301 303 303
302 301 300 299 299 297 297 298 295 296 296 296 296 297 297 297 297 297 297 297 297 296 296 297 297 298 298 297 297 296 295 294 294 294 293 293 293 293 294 295 293 293 293 294 293 293 293 292 292 292 291 290 290 292 291 291 291 291 293 291 292 293 295 296 295 294 293 294 297 298 294 293 294 294 295 292 294 302 296 296 296 297 298 300 300
302 301 300 299 298 298 299 296 296 295 296 297 297 298 297 297 296 296 296 296 296 296 297 297 296 297 297 297 297 296 295 294 294 293 293 293 293 293 293 294 292 291 292 293 293 292 291 292 291 290 292 289 289 292 292 291 291 291 293 290 291 292 293 294 294 293 293 292 295 302 299 292 292 293 292 292 293 299 296 296 295 295 296 297 297
302 300 299 298 297 297 298 297 296 295 295 296 297 297 298 297 297 296 295 295 295 295 296 296 297 297 297 297 296 296 295 294 293 293 293 292 292 292 293 292 292 291 292 292 294 290 290 290 290 290 294 290 289 291 292 291 291 291 292 290 290 291 292 293 293 292 293 292 291 295 299 295 293 293 291 292 292 297 295 295 295 295 295 296 295
301 299 298 298 300 299 295 295 295 295 296 297 297 298 298 297 296 295 295 294 295 296 296 296 297 297 297 297 297 297 295 294 293 292 293 292 293 291 291 291 290 290 291 291 291 290 288 289 289 289 289 289 290 289 292 291 291 291 292 291 290 289 290 291 291 291 290 290 290 290 293 291 290 291 290 291 291 292 295 294 295 294 294 295 297
299 299 302 299 297 296 295 295 296 296 297 298 298 297 297 297 296 295 295 296 296 296 297 296 297 297 297 296 296 295 294 293 293 292 293 293 291 290 290 290 289 290 289 289 289 289 288 287 288 288 288 288 291 290 291 291 291 291 291 291 289 289 289 290 290 289 289 288 288 289 290 292 290 290 290 290 291 291 293 294 292 293 293 296 297
301 301 299 297 297 296 295 295 295 297 298 297 297 297 296 295 294 294 295 296 297 296 296 296 297 297 297 296 296 295 295 295 294 292 290 290 290 291 290 289 288 288 288 288 288 288 286 286 286 287 288 287 290 293 290 291 291 290 290 291 289 289 290 290 288 288 288 288 287 288 289 290 289 290 290 290 290 290 291 292 291 291 292 293 300
299 298 299 298 296 296 295 295 296 297 297 297 297 296 296 295 295 295 297 296 297 296 296 296 297 297 297 296 296 296 295 295 294 293 290 289 288 289 288 288 287 287 287 286 286 286 285 285 285 286 286 287 287 289 292 291 291 290 290 290 290 289 290 290 287 286 286 287 287 287 290 291 289 289 289 289 289 290 291 289 290 291 292 292 297
299 299 298 298 296 295 295 295 296 296 296 297 297 296 296 295 294 296 297 297 296 296 296 296 296 295 296 297 297 296 295 293 293 292 291 288 288 288 288 287 286 286 285 285 285 285 285 284 284 285 286 286 286 287 290 291 290 289 289 289 289 289 289 289 289 287 287 287 286 287 288 288 289 289 289 289 289 289 289 289 289 290 291 293 293
298 297 298 297 296 295 295 294 295 295 296 296 296 296 296 294 295 297 297 297 296 296 294 294 294 294 295 295 295 294 294 293 292 292 290 289 288 287 286 285 285 285 284 284 284 285 284 284 284 284 284 285 286 286 287 289 290 290 289 288 288 289 289 289 288 288 288 287 288 288 288 288 288 288 288 289 289 289 288 288 289 289 293 290 290
297 296 296 296 296 295 295 294 294 295 295 297 295 296 296 295 296 298 296 296 296 295 295 294 294 294 294 295 293 293 292 292 292 292 291 289 288 288 286 284 284 284 284 284 284 285 284 284 283 283 283 284 285 285 286 286 289 289 288 288 288 288 289 289 289 288 288 288 287 287 287 288 288 288 287 287 287 287 288 288 288 289 287 288 289
296 296 297 296 295 295 294 295 294 293 295 295 294 294 295 296 297 297 296 296 296 296 296 294 293 293 293 294 293 292 291 292 291 290 290 290 287 286 286 286 283 282 283 284 284 285 284 284 283 283 283 285 285 285 285 285 285 285 285 286 286 286 288 288 287 286 287 286 286 286 286 287 287 287 286 287 287 287 286 286 285 286 286 286 287
296 297 297 296 295 294 295 295 295 293 295 295 295 295 296 296 296 296 295 296 296 294 292 291 292 292 294 294 295 298 294 290 290 289 288 286 287 287 285 284 283 283 282 283 283 284 283 282 282 283 283 284 285 286 286 286 285 285 284 284 285 286 284 284 283 284 284 285 284 285 285 284 285 284 284 284 284 285 285 284 284 284 285 286 288
295 296 297 296 295 295 295 295 295 294 294 294 294 295 296 295 296 295 295 295 294 293 292 290 290 292 295 296 295 293 291 290 289 289 288 287 285 286 286 286 285 284 284 284 283 283 286 283 283 283 283 283 284 285 287 289 288 287 286 284 283 283 284 283 285 285 284 284 282 282 281 281 281 282 282 282 282 282 283 283 283 283 284 284 284
296 297 296 297 297 296 295 295 294 293 294 293 293 295 296 296 296 295 295 294 294 292 290 290 290 292 293 293 292 291 291 291 289 289 288 288 290 290 288 285 285 290 289 289 288 284 285 285 284 285 285 282 283 285 290 289 289 288 287 287 286 286 285 285 285 284 283 280 279 279 279 279 279 279 280 280 280 281 281 282 282 283 283 283 283
296 296 295 296 295 297 296 295 294 294 294 294 294 294 295 296 296 295 295 294 292 293 291 291 293 292 292 293 292 290 290 289 289 288 287 287 285 287 288 289 290 290 289 289 289 289 289 289 289 284 287 289 289 289 289 289 289 288 287 287 286 286 285 284 284 282 279 279 278 278 278 278 278 279 279 279 280 280 280 281 281 282 282 282 282
Wind_Speed
1 3 3 3 4 4 4 4 4 6 6 6 7 7 8 7 9 10 8 9 9 9 8 8 8 9 8 8 6 6 7 7 8 7 8 6 8 8 7 7 7 7 8 8 7 7 7 6 6 6 6 6 6 7 7 9 8 7 7 6 9 11 9 8 8 9 7 5 1 2 3 4 6 5 3 4 4 4 5 6 6 6 6 6 6
4 5 5 5 5 5 5 4 5 7 6 7 8 7 7 8 9 8 9 9 9 8 8 8 6 4 3 5 4 5 7 7 7 8 7 6 7 7 6 7 8 8 8 8 7 6 7 7 6 6 6 5 6 5 7 7 9 9 7 8 7 7 8 8 8 10 5 8 10 8 3 4 6 5 5 4 3 6 6 8 8 7 6 6 4
4 4 4 4 4 5 4 4 4 4 4 6 6 8 8 8 7 7 8 7 7 7 8 7 6 7 6 5 6 4 5 5 6 6 6 7 7 7 7 8 8 8 9 9 7 8 7 7 7 6 6 7 8 8 7 8 7 8 7 7 8 6 7 6 7 7 7 8 8 6 3 5 1 4 5 5 6 4 4 8 10 8 9 7 6
4 3 3 3 3 3 4 4 4 4 5 6 6 7 6 7 6 7 6 5 6 7 7 7 7 7 7 6 6 5 3 5 4 5 7 10 11 10 10 9 10 10 10 9 8 7 7 7 7 7 7 6 7 8 9 10 9 9 8 7 6 9 7 8 7 6 5 9 7 3 6 2 6 2 2 2 5 11 9 7 3 5 7 7 6
3 3 3 3 4 4 4 4 4 5 4 5 6 5 5 5 6 6 6 6 6 6 6 5 6 7 7 6 5 6 6 8 9 10 9 8 8 8 9 8 9 8 8 9 8 8 7 6 6 6 6 6 6 7 8 8 8 8 9 9 9 7 10 6 7 6 7 7 7 5 3 2 2 4 3 3 2 3 4 5 7 10 8 9 7
3 3 3 2 3 4 5 5 5 5 5 4 4 5 5 5 6 7 7 6 6 6 7 7 7 7 8 9 11 9 9 7 7 7 8 8 7 6 9 8 8 8 8 8 9 8 7 8 5 6 6 6 7 7 7 8 9 9 8 7 8 8 7 9 8 7 6 7 3 4 6 7 8 3 2 3 2 3 1 5 6 5 4 8 7
2 2 2 3 3 4 4 4 4 6 4 4 5 4 6 6 6 6 6 6 7 7 8 7 8 8 7 6 4 5 6 6 5 6 6 7 6 7 7 8 8 8 9 8 9 9 7 7 6 5 6 8 8 9 9 9 9 8 8 8 7 7 7 8 9 8 8 5 6 7 9 8 8 9 4 3 4 1 1 3 8 7 7 6 8
3 2 3 3 2 3 3 3 4 4 4 5 5 6 8 8 7 7 6 6 6 7 8 7 6 6 7 7 6 6 5 6 7 6 6 6 7 7 7 7 9 9 9 9 9 10 9 9 9 9 9 10 10 9 9 9 9 10 10 8 7 6 7 8 8 7 8 9 8 8 9 8 8 10 12 7 3 2 4 2 3 5 7 4 9
3 3 4 4 4 3 4 5 4 5 5 5 5 5 6 6 7 7 7 6 7 7 6 7 6 6 6 6 7 6 5 6 6 6 6 6 7 7 8 8 9 9 9 9 10 11 10 10 10 10 10 9 9 9 9 10 10 11 11 11 9 9 7 8 8 7 8 8 10 9 8 7 7 8 10 9 6 7 3 3 2 3 5 4 6
4 5 4 3 3 3 3 5 6 4 3 4 4 5 5 5 6 8 7 6 6 6 7 8 8 7 8 7 7 7 7 7 6 8 7 7 8 8 8 9 8 9 9 10 10 11 10 10 10 10 9 9 9 9 10 11 11 10 10 9 9 9 8 8 8 8 7 7 7 9 9 8 7 6 7 8 8 8 5 7 6 6 7 5 7
5 4 4 5 4 5 5 7 4 4 4 4 5 5 4 4 7 8 5 5 6 7 7 7 7 6 6 6 6 7 8 7 7 8 8 8 8 8 8 7 7 8 8 8 10 10 9 11 10 9 9 9 10 10 10 10 10 10 9 9 9 10 9 9 9 9 8 8 9 7 8 8 9 8 8 7 7 6 5 7 9 8 8 11 7
7 6 5 6 7 6 6 6 4 4 5 6 5 5 5 4 6 6 5 5 6 6 7 7 6 7 6 5 6 5 6 7 7 7 8 8 8 8 7 7 8 8 8 8 10 9 9 9 9 9 10 10 10 9 10 10 9 9 8 8 9 9 9 9 9 9 10 9 9 8 8 9 8 9 8 9 7 5 6 6 9 7 7 4 7
7 6 5 5 5 5 5 4 4 4 5 5 5 5 4 4 4 6 5 5 5 5 5 5 6 6 5 6 6 5 6 7 6 6 7 7 7 7 7 7 7 8 9 9 9 9 8 9 9 9 9 10 10 11 11 12 11 10 9 10 10 10 9 10 9 10 11 10 9 9 9 9 8 7 7 5 4 4 5 7 6 9 9 9 7
6 7 5 5 4 4 4 4 4 4 4 4 4 5 4 4 4 5 5 4 5 5 4 5 5 6 5 6 6 5 6 6 6 6 7 6 6 7 7 7 7 8 9 9 7 8 8 8 9 9 10 11 11 12 12 11 12 10 10 10 11 10 10 11 10 11 11 11 9 8 10 8 6 6 5 6 5 4 5 6 8 5 9 11 9
6 7 6 5 5 5 4 4 3 4 4 4 5 4 4 4 4 5 5 5 5 4 4 5 5 6 6 6 6 5 6 6 6 6 6 7 7 7 7 7 7 7 7 7 8 8 9 9 10 10 11 12 12 12 11 12 12 11 9 11 10 9 11 11 11 12 11 11 11 9 9 7 6 5 5 5 5 6 5 6 9 9 7 8 10
6 7 6 5 5 4 4 3 3 4 4 4 4 4 4 3 4 4 3 3 4 5 5 5 5 6 6 6 7 6 6 5 6 7 7 6 7 7 7 7 7 6 7 7 7 8 9 9 10 11 11 12 12 13 13 12 12 11 11 9 10 9 11 14 12 11 12 11 10 8 6 6 6 5 5 5 6 6 5 4 9 11 13 9 8
7 7 6 5 4 4 4 4 4 4 4 4 4 4 5 4 4 4 4 4 4 5 5 5 6 6 6 7 6 6 7 7 7 8 7 6 7 7 7 7 8 8 7 6 7 8 8 9 10 11 12 12 13 13 13 12 12 10 10 10 11 13 12 13 12 11 10 9 6 7 6 5 6 5 4 4 5 2 2 4 7 12 12 15 11
9 8 7 6 5 5 3 3 4 5 4 4 4 4 4 5 4 4 3 4 5 5 6 5 5 5 6 6 6 6 6 7 7 7 7 8 8 7 7 8 8 8 7 5 7 8 8 11 10 11 11 13 13 13 13 13 12 9 10 11 10 12 11 11 12 12 11 9 6 3 5 5 6 5 2 4 2 3 4 4 5 4 9 15 12
6 6 5 4 4 4 4 4 4 4 4 4 4 5 5 5 4 4 3 3 3 4 5 6 5 4 4 5 5 6 6 6 6 7 7 9 8 8 8 8 8 9 7 5 7 8 9 10 10 11 12 13 13 13 13 12 11 10 11 11 13 13 11 12 11 12 10 9 9 9 8 6 5 4 5 5 3 0 3 4 6 7 3 5 11
7 6 5 5 5 5 6 6 6 5 4 4 4 5 5 4 6 5 5 4 5 6 6 6 5 5 6 5 6 6 7 7 7 8 9 9 8 8 8 8 8 8 7 6 7 8 9 10 11 12 13 13 14 13 12 11 10 10 10 10 13 14 13 13 12 12 10 11 10 11 11 10 9 6 6 5 4 3 1 3 5 10 7 7 8
7 6 5 5 5 6 5 4 4 4 4 4 5 5 4 4 5 5 5 4 5 5 6 5 5 6 5 6 6 7 8 8 8 8 8 8 8 9 8 8 7 8 6 6 7 8 9 10 11 12 13 13 14 14 12 10 10 12 10 11 12 14 14 12 12 12 12 10 10 10 10 12 11 8 6 5 5 4 3 4 6 10 8 6 9
7 6 6 7 6 6 5 4 4 5 4 5 5 5 5 4 4 5 5 4 4 6 5 5 5 5 5 6 7 7 8 8 8 8 8 8 8 8 8 8 8 7 5 5 8 8 9 11 12 13 13 14 15 13 13 10 10 12 14 11 12 14 14 14 13 12 12 10 9 9 11 11 11 9 9 8 6 5 2 5 6 9 8 6 6
6 6 7 6 6 6 6 6 5 5 4 4 5 5 4 4 4 4 6 5 4 4 5 5 5 5 5 6 7 7 7 7 8 7 8 8 8 8 8 8 8 8 6 3 7 9 10 11 12 13 14 14 14 12 11 10 10 11 11 12 13 13 12 13 14 13 12 11 11 10 10 9 8 10 11 9 8 6 4 5 6 8 9 6 6
7 7 6 5 5 5 6 6 5 4 4 4 4 4 4 4 4 5 6 6 5 4 6 5 5 6 5 6 7 7 8 7 7 7 8 8 8 8 8 9 8 7 8 5 5 9 10 11 12 13 14 14 14 12 12 11 11 11 12 14 14 14 12 12 12 13 13 12 11 10 10 9 9 10 11 9 8 6 6 4 9 8 8 8 8
9 9 8 7 6 6 5 5 4 4 4 4 5 4 4 4 4 5 5 4 4 5 6 5 5 6 6 7 6 7 7 7 7 7 8 8 8 8 8 8 8 8 8 7 6 8 10 12 12 12 14 13 13 13 13 13 12 13 12 12 13 13 12 13 13 12 13 11 11 10 10 10 10 11 11 10 8 9 7 6 8 7 8 8 9
10 9 9 8 6 5 5 5 5 4 5 5 4 4 4 4 4 4 6 4 5 5 5 4 4 5 5 6 5 6 7 6 6 6 7 8 8 9 9 8 8 8 8 9 8 8 10 11 10 11 13 13 12 12 13 12 12 13 13 13 12 13 13 12 12 12 13 12 11 11 11 11 11 11 10 10 10 10 7 7 8 8 7 9 10
11 9 8 7 7 7 5 4 4 4 5 5 5 4 4 4 4 5 4 5 5 5 4 4 4 4 4 5 5 5 5 5 6 6 7 7 8 9 9 9 9 9 9 10 10 8 8 9 10 11 13 13 12 12 13 14 14 12 13 14 13 13 13 11 12 12 13 13 13 12 12 12 11 10 9 10 10 9 7 8 6 7 7 9 9
8 8 9 9 7 6 6 5 5 5 5 5 4 4 4 4 4 5 5 5 4 5 4 4 4 4 4 4 5 4 4 5 5 6 7 8 8 9 9 9 9 10 9 11 11 10 7 7 9 11 14 13 12 13 14 15 13 11 12 12 13 13 14 13 13 12 13 13 14 13 12 12 12 10 11 11 10 7 6 7 6 7 9 8 7
9 8 9 8 8 6 6 6 5 5 6 5 4 4 4 5 4 4 5 5 4 4 3 3 4 4 4 4 4 4 4 4 5 7 8 9 9 8 9 9 9 9 8 9 8 9 9 8 8 11 13 12 12 12 12 14 12 14 12 11 13 12 13 13 13 13 13 14 14 12 12 13 17 20 19 14 11 8 7 7 6 6 8 8 7
10 9 9 8 8 7 6 6 5 6 5 5 5 4 4 5 4 4 5 4 5 3 3 3 4 4 4 4 4 4 4 4 7 8 8 8 7 7 8 9 9 9 8 8 8 8 9 10 9 10 13 11 11 10 21 26 21 13 12 10 11 11 12 12 12 13 13 14 14 13 13 24 24 24 21 17 13 14 15 10 4 5 6 8 6
9 9 9 9 8 7 6 6 6 5 5 6 5 4 5 5 4 5 5 4 4 3 3 3 4 4 4 4 4 4 4 7 7 8 8 8 8 7 7 8 8 8 9 8 8 10 10 10 10 9 12 12 10 15 27 24 23 24 15 11 10 10 11 12 12 12 12 13 13 14 13 16 18 20 16 19 17 16 15 15 14 11 11 7 5
10 9 9 9 8 7 7 6 5 5 5 5 5 4 6 5 4 4 4 4 4 3 4 3 3 4 4 4 4 4 6 7 7 8 8 8 7 8 8 8 8 9 8 8 9 10 10 10 10 11 12 13 12 22 24 25 25 23 21 12 10 9 9 11 12 11 10 11 12 12 12 10 11 17 15 14 15 14 13 14 14 13 15 13 10
11 11 10 9 9 8 8 6 5 5 5 5 6 6 7 6 5 4 5 5 4 4 4 4 4 4 4 4 4 5 7 7 8 8 7 8 8 8 8 8 8 7 7 9 9 10 11 10 11 13 13 13 12 22 23 25 24 23 22 16 8 9 10 11 12 12 11 11 12 12 12 12 11 22 15 14 12 10 12 14 16 12 12 16 15
10 10 10 8 7 7 7 7 6 6 5 5 5 7 7 6 6 4 6 4 4 3 3 3 4 5 5 5 5 6 7 7 7 7 8 8 9 9 7 7 7 7 9 9 10 11 11 11 12 12 11 11 14 21 23 23 23 23 20 14 10 10 9 10 12 12 11 11 14 12 12 13 14 14 14 15 12 10 9 9 7 6 10 11 14
11 10 9 8 9 9 8 6 6 5 5 7 5 6 6 6 6 6 4 5 4 4 3 3 4 4 5 6 6 6 7 7 7 7 8 8 8 8 8 7 7 7 8 9 9 10 11 11 11 11 10 11 13 24 23 24 23 22 18 12 10 9 9 9 11 12 12 12 13 13 11 11 13 13 13 15 11 10 10 9 10 11 10 9 8
13 13 11 11 10 11 10 8 5 5 5 7 6 5 7 6 5 6 4 4 4 4 3 3 4 5 6 6 6 6 7 7 7 7 8 8 8 8 8 7 7 7 7 8 9 10 11 11 11 11 10 11 12 23 23 24 24 22 17 10 10 9 9 9 11 12 13 12 13 15 12 12 13 13 19 21 15 9 10 11 10 9 9 8 9
12 13 12 9 9 9 8 6 6 6 8 7 6 6 7 7 6 5 4 4 4 3 3 3 5 6 6 6 6 7 7 7 7 8 8 8 8 9 8 7 8 8 8 9 9 9 9 10 12 11 12 11 11 19 23 24 24 24 15 10 10 9 9 9 10 10 11 12 13 16 15 12 13 15 20 20 19 12 10 11 9 9 7 8 9
11 8 8 7 7 8 8 9 7 6 7 8 7 7 8 7 6 5 4 4 4 3 2 3 5 6 6 6 6 7 7 7 7 8 7 7 7 6 7 7 8 7 9 8 8 8 9 9 11 11 11 10 11 16 22 22 23 24 16 11 10 9 9 10 9 10 10 10 14 25 23 15 14 14 19 20 21 14 12 10 10 8 9 9 10
14 15 13 10 9 11 10 9 9 8 5 7 8 8 8 6 5 5 4 4 4 4 4 4 5 5 6 6 6 7 7 7 8 7 7 8 7 7 5 6 7 7 7 6 8 8 8 8 9 8 16 13 10 13 21 21 22 23 17 10 10 9 10 11 10 10 10 10 11 14 25 22 17 16 20 20 21 15 11 11 9 9 10 8 7
10 8 10 10 10 12 10 10 9 7 6 8 8 8 7 6 5 5 4 4 4 4 3 4 5 6 6 6 6 7 7 8 8 7 7 7 5 6 7 7 7 7 7 7 7 8 9 9 9 9 10 10 11 12 16 22 21 22 22 12 9 11 11 11 10 10 10 11 11 12 16 23 22 20 20 20 21 20 12 11 12 11 10 10 8
13 12 10 9 8 11 11 10 8 7 7 7 8 8 6 5 5 5 5 4 4 3 3 4 5 6 6 7 6 7 8 7 6 6 6 6 6 6 6 7 7 7 7 8 8 7 8 8 8 8 9 11 11 12 14 20 20 21 22 17 9 11 9 9 9 9 9 10 11 11 9 20 21 19 20 22 21 21 17 12 13 11 7 9 7
9 11 10 8 8 9 9 8 7 8 7 7 8 8 5 5 5 5 5 4 4 3 3 4 5 6 6 7 7 6 6 6 6 6 7 7 6 6 6 6 6 7 8 8 7 7 7 8 8 8 9 9 12 18 13 17 20 21 21 21 12 11 11 7 9 9 9 9 10 10 9 16 18 17 19 21 22 21 22 14 13 12 14 16 10
13 9 8 10 9 10 9 8 7 7 7 7 9 8 6 5 6 5 4 4 4 4 4 4 6 5 5 6 6 7 6 5 5 5 6 7 5 6 6 6 6 7 8 8 8 8 8 8 9 9 9 10 10 11 18 15 19 20 21 20 20 15 16 11 9 10 11 9 9 9 10 19 17 18 19 21 23 24 20 16 21 21 19 18 14
9 11 11 9 9 9 9 7 7 7 7 7 9 8 6 6 5 4 4 4 4 3 3 4 5 5 5 5 5 6 6 5 6 6 6 7 6 6 6 6 6 6 7 8 7 7 8 9 9 9 10 10 9 9 13 19 16 19 19 19 19 19 18 10 9 8 8 9 9 10 11 17 17 19 18 19 22 22 17 22 23 22 19 18 13
14 12 10 9 11 11 9 7 7 7 7 7 7 8 7 7 5 4 5 5 4 4 4 4 5 6 6 5 5 5 5 5 5 5 6 6 6 5 7 5 6 7 7 7 7 7 7 7 8 8 8 8 9 9 10 13 18 19 18 19 19 19 19 16 10 9 9 9 11 14 14 15 18 19 19 19 19 21 24 22 24 24 22 13 13
10 9 9 9 10 10 11 9 6 7 7 6 6 7 8 7 5 5 5 5 4 4 3 3 4 6 6 6 6 5 4 5 5 6 5 4 6 6 6 5 6 7 6 7 7 7 7 8 8 7 8 7 7 7 9 11 11 16 15 19 18 19 20 18 15 11 13 14 15 15 16 15 17 19 16 15 13 13 18 22 24 24 15 13 12
13 11 11 11 11 11 10 10 8 5 7 6 6 5 6 6 6 5 4 5 5 4 3 2 4 6 6 7 8 6 6 5 5 6 5 5 5 6 6 6 6 6 7 6 6 7 7 8 9 8 8 7 8 7 8 9 11 11 11 12 12 13 16 14 11 9 10 10 14 14 12 14 11 16 16 13 14 17 17 17 14 13 12 12 11
10 11 11 11 11 11 10 9 9 6 6 6 6 6 6 6 6 5 5 6 5 4 4 4 3 4 6 7 7 8 8 6 5 6 6 6 5 5 6 6 6 6 7 7 7 7 7 7 7 8 9 10 10 10 10 11 12 11 10 10 11 10 10 10 11 9 9 10 10 9 11 11 13 14 14 13 13 12 12 13 13 11 11 11 11
12 10 12 13 11 11 10 10 8 6 6 6 6 6 6 7 6 5 7 7 6 4 4 4 4 6 7 7 7 7 7 7 6 5 5 3 5 5 6 5 2 3 5 5 6 7 6 5 6 6 7 8 8 8 6 6 11 16 15 12 12 11 9 9 12 13 6 6 10 15 16 16 15 13 14 14 14 13 12 12 13 13 12 12 11
9 9 10 10 10 12 10 10 8 7 6 6 6 7 6 6 5 5 7 7 5 5 4 4 4 6 6 7 7 7 6 6 7 6 6 5 6 6 3 4 3 5 5 5 4 3 4 4 5 6 4 5 5 3 7 11 13 16 18 19 17 18 17 14 13 11 12 15 14 14 14 14 14 14 14 14 15 13 13 13 12 13 12 12 13
11 11 10 11 10 10 10 10 8 6 6 7 7 7 6 6 5 5 7 6 6 5 4 5 5 6 6 7 7 7 6 6 6 6 6 6 4 4 7 7 6 5 6 7 8 7 7 6 4 6 7 11 11 11 13 14 14 15 18 20 19 18 19 17 16 10 17 15 14 14 12 12 11 11 13 12 11 12 13 13 12 11 11 12 11
Wind_Direction
57 30 25 20 25 25 24 27 33 41 32 31 38 35 36 36 38 32 20 24 24 18 15 17 15 5 8 12 357 6 15 13 15 7 11 2 6 2 356 358 355 348 350 350 352 353 354 348 351 349 352 3 10 4 356 353 353 351 345 344 344 338 337 340 337 333 317 326 313 260 263 223 234 231 220 275 273 188 174 145 189 176 172 159 160
33 36 19 24 33 39 36 34 32 43 22 37 44 42 40 36 41 31 25 26 25 27 21 19 16 16 358 359 340 359 20 13 8 8 0 357 6 1 352 359 357 347 350 351 349 353 352 354 354 346 351 358 13 1 359 355 352 349 351 345 348 340 327 335 338 339 347 342 330 321 266 250 237 239 223 211 218 224 188 185 180 179 172 153 153
45 42 32 25 35 36 34 30 27 41 47 50 50 51 44 44 40 40 30 30 23 27 30 19 7 7 18 359 11 347 17 15 13 358 358 3 2 359 358 1 358 353 354 356 358 353 355 356 351 342 358 8 10 2 358 359 352 346 343 348 336 337 322 328 344 355 319 319 300 286 311 339 271 236 231 223 196 242 225 197 190 174 176 152 160
64 48 36 17 25 23 28 21 15 44 52 49 49 51 47 44 43 40 32 28 26 30 35 19 13 8 12 11 10 28 3 7 360 358 6 7 3 360 357 358 357 356 355 358 353 349 348 351 353 1 359 6 9 1 356 356 352 348 344 342 340 333 340 326 342 337 328 330 334 340 298 308 296 265 288 270 211 201 217 204 144 188 173 159 153
75 57 47 49 37 17 9 29 48 51 42 51 53 50 51 43 42 41 31 28 24 26 31 26 18 13 5 5 15 8 12 16 13 5 359 355 355 354 346 351 351 352 351 354 355 344 348 351 357 353 1 359 10 5 356 346 345 343 344 346 345 333 327 323 325 335 327 317 305 315 308 265 269 298 315 256 189 223 223 149 186 198 166 182 169
117 112 101 60 47 21 30 49 55 49 46 47 55 52 49 37 34 32 27 24 26 22 22 24 19 19 13 17 16 13 9 2 358 350 347 354 348 337 345 346 349 351 354 354 354 348 347 352 358 2 1 358 12 7 355 351 348 345 342 337 331 331 319 321 324 332 330 310 311 279 266 282 300 287 316 290 18 317 351 163 188 216 181 184 165
72 90 69 57 23 50 36 54 64 68 60 64 61 54 50 42 38 36 31 25 20 25 22 19 19 14 19 16 18 16 3 347 342 348 355 345 350 354 340 341 350 355 352 354 353 351 351 353 3 6 7 11 8 6 0 352 342 339 338 339 329 323 329 321 324 326 326 318 319 306 296 280 270 276 254 259 263 186 332 220 186 182 155 160 159
137 97 47 52 78 101 85 57 61 75 73 66 57 49 50 49 47 39 29 24 21 28 25 14 22 16 17 14 14 13 5 356 346 347 350 353 353 350 346 347 351 354 353 352 353 353 1 1 9 15 16 9 4 2 354 347 342 339 338 332 326 331 327 315 314 322 328 318 319 310 308 297 274 265 257 239 246 246 208 240 152 138 135 139 155
121 103 106 112 107 99 84 56 59 68 58 61 55 56 56 50 46 44 31 19 18 26 27 14 18 22 24 22 17 4 3 1 353 358 357 353 356 349 355 352 354 350 351 353 355 358 8 9 17 21 15 3 2 355 352 346 344 340 337 336 336 332 329 318 310 314 316 313 318 312 303 295 284 264 259 239 216 221 215 181 131 77 107 72 92
110 126 136 123 85 52 38 67 61 49 53 61 58 62 58 53 48 49 29 20 16 20 22 17 17 18 21 17 20 7 3 358 1 2 2 358 2 356 355 355 351 348 348 351 358 4 15 24 24 20 11 3 3 352 349 347 344 340 334 328 328 328 323 321 318 311 303 300 301 303 302 306 296 280 252 236 225 222 201 181 165 159 141 125 134
126 113 78 66 66 74 62 67 60 49 40 56 54 56 46 46 54 48 29 26 20 23 26 18 13 18 18 15 18 14 6 7 3 4 3 2 4 354 355 346 347 350 348 349 4 10 30 30 21 15 11 5 359 355 350 343 340 335 327 324 328 329 324 320 318 311 304 299 300 298 297 295 291 287 279 252 223 194 196 177 157 175 152 136 158
127 103 96 90 74 58 67 60 51 45 45 39 42 50 36 35 56 49 27 27 25 24 30 19 16 12 14 14 14 9 9 10 7 1 0 358 359 353 347 351 355 350 354 0 9 21 34 25 16 12 10 1 358 349 346 343 338 333 328 329 327 323 318 319 316 312 310 303 295 296 292 290 280 271 270 251 217 212 201 176 164 151 131 94 118
125 119 117 105 103 99 85 76 64 61 65 58 53 56 53 43 48 62 28 28 25 21 32 23 17 10 10 11 9 5 9 9 6 2 358 359 352 351 354 357 352 359 356 5 16 30 30 24 14 11 6 359 352 352 347 345 343 337 332 332 330 326 322 316 312 306 302 298 297 297 290 287 281 283 281 279 215 225 218 182 152 149 138 122 115
134 128 130 126 130 129 134 126 112 92 67 58 46 52 50 43 42 64 37 33 26 18 12 21 14 8 10 10 4 4 9 8 3 5 355 354 355 354 358 357 357 358 357 10 22 32 28 21 16 11 6 357 355 352 350 347 344 339 335 335 332 323 316 314 307 303 299 291 288 291 294 292 289 285 281 262 242 210 207 182 137 131 132 129 133
141 132 137 147 154 152 152 144 132 95 80 58 50 42 54 49 47 50 45 27 36 20 12 15 7 9 10 6 7 5 12 7 2 4 1 2 0 0 2 0 3 354 359 17 31 30 24 17 15 11 3 358 354 354 351 349 347 341 340 333 328 321 318 317 312 309 303 301 297 295 292 285 282 281 277 277 260 230 196 162 134 128 113 125 128
136 135 143 160 165 160 143 151 126 95 87 75 59 52 56 56 57 43 42 26 37 29 21 20 12 10 9 10 7 12 11 9 10 10 7 4 3 8 4 3 355 355 6 26 35 28 21 17 12 9 2 358 356 356 354 352 348 344 339 324 323 326 325 324 321 317 316 313 307 301 301 297 296 296 291 274 257 229 193 172 146 144 141 138 130
143 145 155 167 169 161 166 152 113 105 98 93 83 73 75 62 54 31 7 11 24 35 31 20 17 17 7 12 14 13 14 17 15 12 7 4 11 9 7 355 357 5 7 29 36 26 20 19 12 8 3 358 358 359 355 353 344 340 329 325 330 330 329 329 328 331 335 335 325 333 315 301 297 279 284 305 296 287 205 167 172 159 157 140 149
150 153 162 170 167 168 152 125 127 124 122 101 85 82 79 79 66 44 12 10 5 28 34 25 16 16 14 15 15 18 16 15 16 15 9 14 12 8 2 0 357 357 14 31 36 26 20 19 13 9 3 2 2 357 356 349 344 331 328 335 333 330 331 333 335 346 356 340 354 10 317 321 332 341 357 273 311 230 187 197 183 174 164 149 149
143 154 163 153 151 134 133 133 123 124 126 125 103 73 63 64 74 71 32 352 3 25 34 23 19 23 21 17 16 13 16 20 20 20 19 17 9 3 1 358 357 1 16 36 31 27 23 18 15 9 5 4 1 0 355 348 335 333 333 337 336 334 333 336 347 346 353 357 358 3 356 352 344 337 11 8 13 185 181 176 159 127 107 118 133
161 167 160 166 156 132 128 127 126 131 135 140 100 75 58 52 50 30 31 23 30 34 33 26 18 26 21 15 13 16 21 27 26 25 19 14 3 358 358 359 355 4 21 43 36 30 24 20 16 11 7 4 3 359 355 341 340 345 341 339 335 331 339 340 345 352 353 357 355 7 7 1 353 348 7 9 352 350 36 71 146 124 106 95 91
163 155 152 145 133 130 135 131 129 120 116 109 101 90 77 52 51 44 41 19 33 37 38 27 27 22 24 21 20 26 30 30 29 22 20 11 4 1 358 357 355 5 17 44 35 31 28 23 18 15 8 5 2 359 350 341 338 343 334 339 335 339 342 341 342 348 355 355 1 7 2 8 355 2 2 357 354 356 53 66 89 101 102 95 117
160 144 127 125 120 121 128 125 111 96 89 88 89 91 73 60 58 43 38 28 40 36 44 32 28 29 30 26 32 35 37 31 29 18 17 11 4 0 359 2 5 356 11 46 39 34 31 25 21 14 10 6 2 357 350 342 343 344 350 347 342 344 344 342 345 351 354 353 356 6 6 7 358 359 14 6 358 13 58 92 74 99 95 96 126
143 129 131 132 131 129 128 123 116 115 110 88 81 92 95 76 53 48 46 35 43 41 45 41 33 30 27 30 39 42 37 31 26 18 14 7 3 359 1 7 6 2 2 39 47 38 34 27 24 17 12 9 1 356 345 341 337 344 342 344 345 346 342 344 346 348 350 346 358 3 7 3 359 17 18 11 7 19 60 101 105 93 94 92 117
110 114 113 123 116 108 104 106 109 103 87 78 83 85 80 64 58 49 48 43 40 38 44 38 36 33 29 39 42 40 37 28 25 14 13 8 4 5 2 9 7 4 10 8 49 41 36 28 23 18 14 6 359 351 349 345 345 346 346 349 347 345 345 349 347 347 349 351 353 0 5 5 4 21 17 13 11 16 37 60 92 89 88 83 99
110 110 111 102 93 96 110 114 112 100 91 90 86 88 88 74 58 53 55 52 48 46 46 38 42 43 42 47 46 42 37 27 23 13 13 10 10 10 9 11 9 8 9 14 34 41 36 31 24 16 13 5 359 355 356 348 349 356 352 349 347 346 346 349 351 350 353 353 354 5 5 10 12 20 10 8 3 22 34 44 75 81 83 88 97
120 115 107 105 112 113 105 107 107 112 115 104 96 94 93 76 51 57 69 57 52 54 46 46 38 50 50 50 48 46 36 28 21 16 13 12 13 13 12 13 15 14 13 23 32 41 35 30 25 18 13 5 1 0 356 350 350 350 352 351 348 348 347 352 353 356 356 356 357 4 5 7 14 21 2 351 4 10 33 50 74 81 77 90 101
132 128 125 117 105 107 111 110 116 105 95 100 104 99 92 80 60 59 69 73 62 61 48 45 41 53 56 51 48 43 35 24 16 14 15 17 16 16 17 16 13 18 24 31 25 36 35 26 23 17 14 5 4 5 2 358 350 339 352 354 351 351 351 353 354 360 3 1 359 0 4 6 8 11 3 358 357 358 30 54 60 83 95 99 112
127 123 120 121 120 109 102 101 94 96 96 95 91 94 93 88 80 73 70 70 63 63 50 44 49 56 56 53 49 41 31 26 20 17 20 21 22 21 19 18 19 21 31 35 29 23 24 24 26 21 15 11 8 9 9 1 345 346 348 347 353 352 353 355 357 359 4 4 1 359 358 5 9 10 11 350 355 359 29 57 54 88 101 111 118
134 133 132 129 121 121 113 109 115 109 106 108 96 83 76 73 70 76 79 78 79 70 49 47 51 60 57 53 52 47 34 29 24 26 25 23 21 19 21 25 26 26 29 34 31 26 20 22 31 24 16 12 15 12 9 3 355 355 354 349 353 354 357 356 357 358 0 3 3 359 356 3 10 15 14 3 342 26 45 56 54 76 104 103 97
145 144 140 132 130 130 129 124 123 124 122 108 98 95 91 92 82 80 83 81 80 63 60 50 54 56 54 52 55 51 40 31 33 31 29 26 23 20 25 28 30 28 27 27 22 20 20 20 28 25 21 16 15 13 4 6 8 2 355 354 352 354 359 358 0 359 359 0 3 359 354 4 9 11 6 4 3 25 42 52 54 82 74 88 93
145 144 142 137 136 136 135 128 133 135 134 127 134 122 99 93 93 88 87 86 83 65 50 53 53 48 54 55 55 51 41 41 37 36 32 29 24 22 26 31 31 28 25 21 18 20 20 19 22 29 24 18 16 8 4 4 5 5 359 355 353 353 0 4 7 3 1 357 2 1 358 1 7 10 4 6 16 22 24 35 34 42 52 54 96
152 151 143 142 142 144 142 146 146 149 147 140 134 120 101 107 104 96 95 83 76 63 57 49 43 42 50 55 55 53 50 45 43 38 34 29 25 26 29 30 31 27 19 15 21 22 22 22 22 26 25 19 14 5 4 5 3 2 2 360 357 359 1 8 8 2 359 0 3 1 2 358 4 10 13 4 1 8 21 26 26 28 44 45 38
156 154 153 153 155 155 152 151 150 149 155 161 141 117 114 124 111 115 93 81 80 76 61 51 34 42 51 55 55 57 54 48 43 40 35 33 28 27 28 29 31 24 18 20 17 18 21 22 28 27 24 19 16 7 6 6 3 360 357 360 349 357 6 12 11 4 356 360 8 6 3 3 357 7 11 5 359 353 16 27 34 3 33 38 30
155 152 153 154 152 151 152 158 157 155 150 156 137 123 124 123 119 103 92 90 93 75 67 50 42 47 55 62 60 60 56 51 45 42 38 36 32 29 25 24 24 22 23 21 18 19 19 22 28 27 23 17 16 8 6 7 5 360 355 358 358 1 6 16 16 8 4 6 15 12 7 3 2 7 7 1 354 5 2 19 25 18 40 32 26
152 149 151 155 154 147 148 149 154 143 124 113 104 112 117 109 109 98 94 94 92 93 71 51 51 47 58 63 64 59 59 51 46 43 41 39 35 30 28 25 23 23 24 23 19 20 21 23 25 24 22 18 16 10 6 7 8 3 356 3 359 360 7 20 20 13 10 7 16 16 8 5 5 6 6 355 357 4 12 16 20 20 20 22 20
162 156 158 158 156 152 152 160 154 121 118 115 125 126 108 109 105 103 95 92 100 99 87 56 49 55 64 71 72 66 58 53 48 45 44 40 37 31 28 19 23 23 25 27 26 26 23 23 22 21 22 18 13 12 8 7 7 4 1 9 1 2 5 15 23 19 15 8 15 18 10 9 7 7 0 357 358 5 25 23 21 17 17 14 22
156 154 156 156 150 143 140 130 131 131 119 120 126 116 108 106 99 98 95 90 93 95 86 62 62 66 73 75 76 70 64 55 49 48 42 36 34 29 27 22 27 24 23 26 27 26 24 24 21 20 21 17 13 12 12 9 8 6 6 8 5 4 8 12 22 23 21 14 13 21 17 8 8 11 358 1 4 15 32 23 12 14 20 24 11
137 127 128 135 133 123 120 121 122 116 125 127 122 115 108 103 103 100 94 85 88 89 94 77 75 80 79 80 76 71 66 58 53 50 42 39 35 32 32 23 32 24 24 20 27 26 26 24 23 19 20 16 15 12 15 12 10 9 11 10 4 6 8 12 13 18 23 23 17 23 23 14 9 4 357 10 10 20 33 21 14 6 16 20 3
149 148 144 143 140 130 124 114 114 114 126 125 121 114 107 103 107 107 102 99 94 99 101 93 90 90 88 87 80 71 67 62 58 49 44 42 35 35 27 28 31 28 28 21 31 28 24 23 19 16 19 21 16 12 16 14 15 13 13 14 10 6 13 13 10 10 15 19 17 18 20 15 9 3 6 15 19 21 35 22 12 20 13 12 353
137 133 137 140 137 119 113 114 118 131 136 123 115 109 109 113 118 115 107 115 122 129 137 109 96 94 95 90 86 80 71 68 63 55 49 45 39 37 30 32 29 28 26 26 28 27 25 18 12 14 15 12 18 16 15 16 17 18 16 18 13 17 12 8 9 11 9 11 15 13 15 10 3 7 12 19 25 24 29 24 24 27 6 351 331
144 144 140 136 135 127 130 132 133 133 126 119 112 108 111 118 119 113 131 147 155 142 113 100 101 105 101 97 94 91 84 74 71 68 58 51 40 43 37 36 32 26 33 32 29 25 24 18 13 13 14 14 15 17 14 19 20 21 19 20 20 19 9 11 10 14 16 13 11 11 8 7 2 6 16 22 27 28 27 31 24 16 347 297 301
130 139 137 135 133 126 123 124 133 130 126 120 116 114 120 119 112 133 167 169 135 124 108 92 99 111 112 107 106 96 90 87 77 71 63 51 39 43 43 40 35 36 38 35 30 25 22 18 14 15 16 15 11 17 14 17 20 22 22 22 26 19 13 18 21 24 15 18 12 2 6 2 2 12 23 26 27 28 29 33 8 355 4 13 26
146 145 147 141 137 131 134 140 141 132 127 124 118 120 126 121 124 159 166 141 127 121 109 102 103 109 116 117 115 110 100 97 82 75 74 62 48 46 42 43 41 43 41 39 29 23 24 20 19 16 13 15 13 10 13 15 19 23 22 22 23 23 16 30 29 29 20 11 6 0 2 3 7 17 25 28 29 27 29 16 9 13 15 19 27
146 146 148 145 133 128 131 136 136 132 130 129 125 129 134 132 153 177 133 124 120 119 106 97 103 115 117 117 117 109 104 99 98 86 74 72 57 53 50 43 44 47 45 42 31 24 26 27 20 14 12 12 11 12 9 14 18 23 23 24 24 24 23 26 31 36 24 14 9 7 1 2 15 21 24 31 33 31 23 16 18 15 18 26 28
152 153 148 143 138 135 131 130 136 134 133 132 134 136 141 146 179 153 128 128 135 123 105 105 106 119 122 117 111 115 109 98 91 88 80 74 66 61 59 33 48 47 43 43 29 25 29 25 22 18 10 12 12 10 9 5 12 22 24 23 24 24 25 23 31 26 26 19 13 7 4 11 21 24 22 28 30 25 21 19 21 19 23 25 22
138 140 141 137 127 126 129 130 134 137 135 138 138 137 144 166 176 150 143 132 129 114 100 106 113 123 131 119 111 104 96 95 89 78 78 69 81 70 71 50 51 50 44 43 28 27 26 23 26 15 14 12 17 20 14 10 8 14 18 21 25 26 25 24 28 26 22 21 20 17 15 14 23 25 26 23 22 14 16 24 24 23 22 18 15
152 151 139 135 132 133 135 136 139 152 140 144 142 141 148 158 156 154 139 124 118 117 111 95 104 116 125 124 122 121 109 92 88 84 71 67 65 73 68 60 53 53 47 42 34 31 23 20 21 13 13 20 26 27 22 18 17 16 16 15 18 20 20 22 21 16 16 22 24 27 23 29 37 39 40 30 25 19 21 20 21 20 19 15 13
147 148 143 136 137 140 141 141 147 164 149 149 148 145 155 153 149 138 124 121 121 117 113 107 93 92 116 129 123 121 116 103 94 97 95 77 58 72 76 63 60 52 55 39 37 30 25 15 11 11 14 19 21 21 20 21 25 22 19 21 20 18 20 18 19 14 16 23 26 21 29 29 28 30 25 22 22 23 21 19 18 15 15 11 14
151 156 150 148 146 142 145 144 155 165 154 153 148 153 157 152 153 134 125 125 126 123 113 96 95 97 106 118 120 122 122 118 108 89 75 85 100 90 91 83 72 80 61 63 41 26 18 7 14 23 25 27 25 23 5 14 35 33 31 28 26 22 17 23 21 19 23 36 35 33 28 27 26 22 21 20 17 15 13 13 13 13 8 7 8
152 147 145 141 144 143 147 150 161 165 156 151 150 155 162 157 156 134 130 130 134 121 108 106 104 104 114 117 122 122 123 120 121 116 108 72 36 49 55 97 84 32 35 30 44 30 341 347 19 25 50 64 54 30 39 43 45 42 39 39 39 37 34 31 17 15 37 44 35 39 32 28 24 23 22 21 17 13 10 8 7 7 8 8 10
155 146 149 147 149 149 148 154 164 163 158 153 151 156 159 164 159 138 134 137 134 128 125 119 108 111 120 126 127 127 127 124 126 127 121 119 103 32 28 35 36 29 20 18 25 26 33 36 43 47 32 43 53 53 52 49 45 43 41 40 39 37 34 32 23 27 45 38 34 35 31 29 28 26 28 20 15 14 14 13 7 7 9 10 6